Location: Andershausen
(51.8462°N, 9.8595°E)
Time: 05:50:54
(UTC+00:00)

Spot 4 Rocket - Pass Details

Date: 18 November 2025
Orbit: 769 x 773 km, 98.8° (Epoch: 11 December)

Event Time Altitude Azimuth Distance (km) Brightness Sun altitude
Rises 16:50:59 0° 143° (SE) 3,232 7.0 -12.9°
Reaches altitude 10° 16:53:21 10° 137° (SE) 2,309 6.2 -13.3°
Maximum altitude 16:58:11 46° 66° (ENE) 1,034 4.2 -14.0°
Drops below altitude 10° 17:03:03 10° 354° (N) 2,325 6.4 -14.7°
Sets 17:05:26 0° 349° (NNW) 3,257 7.3 -15.1°
